Flag for U.S.A. Weather past 2 weeks in Providence, Rhode Island, U.S.A.

Now
62 °F

Passing clouds.


Feels Like: 62 °F
Forecast: 58 / 79 °F
Wind: 3 mph from West

Location: Green State Airport

Current Time: Jul 30, 2014 at 3:22:52 AM

Latest Report: Jul 30, 2014 at 2:51 AM


Visibility: 10 mi

Pressure: 29.95 "Hg

Humidity: 78%

Dew point: 55 °F

Location of ProvidenceLocation

Historic Weather in Providence — Graph

°F

Providence temperature yesterday

Maximum temperature yesterday: 78 °F (at 3:51 PM)
Minimum temperature yesterday: 63 °F (at 4:51 AM)
Average temperature yesterday: 70 °F

Past Weeks' High & Low Weather Summary

 TemperatureHumidityPressure
High87 °F (Jul 23, 12:51 PM)97% (Jul 15, 2:51 AM)30.27 "Hg (Jul 15, 2:51 AM)
Low61 °F (Jul 18, 4:51 AM)38% (Jul 25, 12:51 PM)29.48 "Hg (Jul 28, 4:51 PM)
Average72 °F74%29.94 "Hg
* Reported Jul 15 1:51 AM — Jul 30 1:51 AM, Providence, Weather by CustomWeather, © 2014

Note: Actual official high and low records may vary slightly from our data, if they occured in-between our weather recording intervals... More about our weather records

Advertising

Providence weather history for previous 24 hours

 ConditionsComfort  
Time TempWeatherWind HumidityBarometerVisibility
1:51 AM
Jul 30
63 °FOvercast.5 mph75%29.97 "Hg10 mi
12:51 AM64 °FOvercast.5 mph75%29.97 "Hg10 mi
11:51 PM
Jul 29
65 °FPassing clouds.7 mph70%29.96 "Hg10 mi
10:51 PM65 °FPassing clouds.5 mph73%29.95 "Hg10 mi
9:51 PM68 °FPassing clouds.5 mph65%29.94 "Hg10 mi
8:51 PM69 °FPassing clouds.6 mph63%29.93 "Hg10 mi
7:51 PM72 °FScattered clouds.3 mph55%29.92 "Hg10 mi
6:51 PM74 °FScattered clouds.9 mph50%29.90 "Hg10 mi
5:51 PM76 °FScattered clouds.12 mph45%29.88 "Hg10 mi
4:51 PM77 °FScattered clouds.12 mph44%29.86 "Hg10 mi
3:51 PM78 °FBroken clouds.8 mph40%29.85 "Hg10 mi
2:51 PM77 °FBroken clouds.7 mph45%29.83 "Hg10 mi
1:51 PM77 °FBroken clouds.12 mph47%29.82 "Hg10 mi
12:51 PM76 °FBroken clouds.9 mph52%29.81 "Hg10 mi
11:51 AM76 °FScattered clouds.5 mph54%29.80 "Hg10 mi
10:51 AM74 °FPassing clouds.6 mph57%29.80 "Hg10 mi
9:51 AM72 °FPassing clouds.7 mph61%29.80 "Hg10 mi
8:51 AM70 °FSunny.10 mph66%29.79 "Hg10 mi
7:51 AM67 °FPartly sunny.9 mph73%29.77 "Hg10 mi
6:51 AM64 °FScattered clouds.7 mph81%29.75 "Hg10 mi
5:51 AM63 °FPassing clouds.7 mph84%29.73 "Hg10 mi
4:51 AM63 °FClear.8 mph87%29.70 "Hg10 mi
3:51 AM65 °FClear.9 mph85%29.68 "Hg10 mi
Weather by CustomWeather, © 2014

See weather overviewHow to use our weather pages